Flag for U.S.A. Weather past 2 weeks in Kansas City, Missouri, U.S.A.

Now
74 °F

Clear.


Feels Like: 74 °F
Forecast: 71 / 89 °F
Wind: 7 mph from Southeast

Location: Kansas City Downtown Airport

Current Time: Sep 3, 2014 at 2:54:18 AM

Latest Report: Sep 3, 2014 at 1:54 AM


Visibility: 10 mi

Pressure: 29.93 "Hg

Humidity: 82%

Dew point: 68 °F

Location of Kansas CityLocation

Historic Weather in Kansas City — Graph

°F

Kansas City temperature yesterday

Maximum temperature yesterday: 84 °F (at 4:54 PM)
Minimum temperature yesterday: 69 °F (at 4:54 AM)
Average temperature yesterday: 76 °F

Past Weeks' High & Low Weather Summary

 TemperatureHumidityPressure
High98 °F (Aug 23, 2:54 PM)93% (Sep 1, 1:54 AM)30.11 "Hg (Sep 1, 1:54 AM)
Low68 °F (Sep 1, 12:54 AM)29% (Aug 23, 4:54 PM)29.66 "Hg (Aug 31, 8:54 PM)
Average83 °F63%29.88 "Hg
* Reported Aug 19 12:54 AM — Sep 3 12:54 AM, Kansas City, Weather by CustomWeather, © 2014

Note: Actual official high and low records may vary slightly from our data, if they occured in-between our weather recording intervals... More about our weather records

Advertising

Kansas City weather history for previous 24 hours

 ConditionsComfort  
Time TempWeatherWind HumidityBarometerVisibility
12:54 AM
Sep 3
75 °FClear.9 mph82%29.95 "Hg10 mi
11:54 PM
Sep 2
75 °FClear.9 mph82%29.96 "Hg10 mi
10:54 PM74 °FClear.5 mph82%29.95 "Hg10 mi
9:54 PM75 °FClear.3 mph76%29.94 "Hg10 mi
8:54 PM78 °FClear.No wind69%29.93 "Hg10 mi
7:54 PM80 °FSunny.3 mph64%29.92 "Hg10 mi
6:54 PM82 °FSunny.3 mph58%29.90 "Hg10 mi
5:54 PM83 °FSunny.6 mph57%29.91 "Hg10 mi
4:54 PM84 °FPassing clouds.8 mph55%29.91 "Hg10 mi
3:54 PM83 °FSunny.7 mph57%29.93 "Hg10 mi
2:54 PM82 °FPassing clouds.8 mph60%29.96 "Hg10 mi
1:54 PM82 °FScattered clouds.7 mph63%29.98 "Hg10 mi
12:54 PM80 °FPartly sunny.5 mph67%29.99 "Hg10 mi
11:54 AM78 °FPassing clouds.3 mph74%29.97 "Hg10 mi
10:54 AM75 °FPartly sunny.3 mph79%29.97 "Hg10 mi
9:54 AM72 °FFog.3 mph91%29.97 "Hg5 mi
9:03 AM71 °FFog.No wind93%29.98 "Hg1 mi
7:51 AM71 °FFog.3 mph93%29.95 "Hg2 mi
6:57 AM70 °FFog.3 mph93%29.93 "Hg3 mi
5:54 AM70 °FFog.No wind93%29.89 "Hg5 mi
4:54 AM69 °FFog.No wind93%29.88 "Hg5 mi
3:54 AM71 °FFog.6 mph93%29.90 "Hg5 mi
2:54 AM72 °FClear.3 mph91%29.89 "Hg8 mi
Weather by CustomWeather, © 2014

See weather overviewHow to use our weather pages